Weather Roundup
Issued by NWS Chicago, IL

Home | Current Version | Previous Version | Text Only | Print | Product List | Glossary On
Versions: 1 2 3 4 5 6 7 8 9 10 11 12 13 14 15 16 17 18 19 20 21 22 23 24 25 26 27 28 29 30 31 32 33 34 35 36 37 38 39 40 41 42 43 44 45 46 47 48 49 50
000
NZUS59 KLOT 290708
HRRLOT

CHICAGO AREA WEATHER ROUNDUP
NATIONAL WEATHER SERVICE CHICAGO/ROMEOVILLE IL
200 AM CDT SUN MAY 29 2016

NOTE: "FAIR" INDICATES FEW OR NO CLOUDS BELOW 12,000 FEET WITH NO
SIGNIFICANT WEATHER AND/OR OBSTRUCTIONS TO VISIBILITY.

* THESE STATIONS ARE NOT UNDER NWS QUALITY CONTROL. THEY ALSO MAY NOT
  REPORT WEATHER SUCH AS PRECIPITATION OR FOG.

ILZ005-006-012>014-019>023-290800-
NORTHEAST ILLINOIS

CITY           SKY/WX    TMP DP  RH WIND       PRES   REMARKS
OHARE          CLOUDY    66  60  81 S9        29.94F
MIDWAY         CLOUDY    68  56  65 SW8       29.95F
AURORA         MOCLDY    65  62  90 S9        29.96F
LANSING*       MOCLDY    64  56  75 S7        29.97F
JOLIET*        CLOUDY    66  63  88 S6        29.97F
WAUKEGAN       CLOUDY    65  63  93 SW9       29.92F
DUPAGE AIRPORT CLOUDY    64  60  87 S7        29.95F
WHEELING       CLOUDY    66  61  84 S8        29.95F
KANKAKEE*      LGT RAIN  65  59  80 SW9G17    29.99F
MORRIS*        CLOUDY    65  60  85 SW7       29.96F
LEWIS AIRPORT* CLOUDY    65  59  80 SW9       29.98S
$$

WIZ051-052-058>065-066-070>072-290800-
SOUTHEAST WISCONSIN

CITY           SKY/WX    TMP DP  RH WIND       PRES   REMARKS
MILWAUKEE      CLOUDY    65  63  93 S9        29.91F
KENOSHA*       CLOUDY    65  62  90 SW7       29.92F
RACINE*        PTCLDY    65  61  87 SW9       29.93F
BURLINGTON     CLOUDY    63  62  97 SW5       29.92F
WAUKESHA       CLOUDY    63  61  94 S8        29.92F
WEST BEND      CLOUDY    63  61  94 S5        29.89F
$$

INZ001>003-010>013-019-020-290800-
NORTHWEST INDIANA

CITY           SKY/WX    TMP DP  RH WIND       PRES   REMARKS
GARY*          CLOUDY    69  63  80 CALM      29.96F
MICHIGAN CITY* NOT AVBL
RENSSELAER*    NOT AVBL
VALPARAISO     CLOUDY    67  56  67 S6        29.99F
$$

LMZ740>746-290800-
SOUTHERN LAKE MICHIGAN

STATION/POSITION TIME  SKY/WX   TEMP WIND        PRES    VSBY
                                AIR  DIR/SP/G
                 (UTC)          (F)  (DEG/KT/KT) (MB)    (MI)
HARRISON CRIB    0600            70  200/ 12/ 12   N/A
BURNHAM HARBOR   0700            69  200/  6/ 10   N/A
CALUMET HARBOR   0600            71  200/  9/ 13 1015.0R
BURNS HARBOR     0600            72  230/ 13/ 20 1016.3R
MICHIGAN CITY    0600            72  190/ 12/ 13   N/A
$$

ABBREVIATIONS USED IN REMARKS
   TC - TEMPERATURE IN CELSIUS
  WCI - WIND CHILL INDEX
   HX - HEAT INDEX
  VSB - VISIBILITY
$$




USA.gov is the U.S. government's official web portal to all federal, state and local government web resources and services.